Dewpoint
-8 -8 -8 -8 -6 -7 -7 -7 -7 -8 -8 -9 -9 -9 -9 -6 -8 -9 -8 -9 -10 -10 -11 -10 -11 -10 -9 -7 -8 -8 -7 -8 -8 -6 -5 -3 -2 -2 3 11 13 13 14 14 16 19 20 21 22 22 23 24 25 26 27 28 29 29 30 30 31 31 30 28 26 26 25 26 25 22 21 24 23 24 26 27 26 27 28 27 28 29 28 27 28
-10 -10 -9 -9 -8 -8 -8 -8 -9 -9 -9 -8 -7 -8 -8 -9 -9 -7 -8 -8 -8 -8 -8 -1 -8 -8 -7 -7 -7 -7 -7 -7 -8 -8 -6 -3 -2 -1 1 11 14 13 12 11 13 18 20 21 22 23 24 24 26 27 27 27 28 29 29 30 30 30 31 29 27 26 25 24 25 19 18 22 23 26 24 25 27 27 27 27 27 27 27 29 30
-10 -9 -9 -9 -9 -9 -9 -9 -9 -8 -8 -7 -7 -7 -7 -7 -6 -6 -6 -6 -6 -7 -6 -5 -5 -3 -2 -2 -1 -1 -1 -2 -3 -4 -4 -3 -2 -1 1 6 12 14 13 13 15 18 20 21 22 22 24 25 26 27 28 28 28 29 29 30 30 30 30 29 29 28 26 25 25 22 17 19 22 24 26 26 27 28 27 27 28 27 27 27 28
-10 -9 -9 -9 -9 -9 -9 -8 -8 -8 -7 -6 -6 -5 -5 -4 -3 -4 -4 -4 -5 -5 -5 -6 -6 -7 -7 -6 -4 -0 1 1 -1 -2 -3 -3 -4 0 9 10 14 16 15 16 16 17 18 20 22 23 23 24 25 26 27 28 28 29 29 30 29 30 30 29 30 28 26 25 24 23 17 17 19 21 25 28 28 28 27 28 28 28 28 27 26
-10 -9 -9 -9 -9 -9 -9 -8 -8 -7 -6 -5 -5 -3 -2 -2 -2 -2 -3 -4 -4 -5 -5 -5 -5 -5 -5 -4 -2 1 2 2 2 2 0 -1 3 9 10 12 14 15 15 15 16 17 17 18 18 22 25 24 24 25 26 27 28 28 29 29 29 29 29 29 28 29 26 26 25 25 20 16 18 21 24 25 26 28 28 28 28 28 28 28 28
-10 -10 -10 -9 -9 -9 -8 -8 -7 -6 -5 -4 -4 -2 -2 -1 -1 -1 -2 -2 -2 -3 -3 -4 -4 -4 -4 -4 -3 0 3 3 3 4 4 4 4 7 11 11 11 13 14 14 15 17 17 17 18 20 24 25 24 25 27 27 28 28 29 29 29 29 29 29 29 28 26 25 25 25 22 17 16 19 22 24 25 25 26 27 28 28 28 27 28
-10 -10 -10 -9 -9 -9 -8 -8 -6 -6 -5 -4 -3 -1 -1 -1 -0 0 0 0 -0 -1 -1 -2 -3 -3 -3 -3 -3 -1 1 2 2 2 3 3 7 8 9 10 9 10 11 13 14 16 16 17 18 21 24 26 26 27 27 28 29 29 29 29 29 29 29 28 29 28 26 25 24 25 23 19 18 17 20 24 24 25 25 25 25 27 27 27 27
-10 -10 -9 -9 -9 -8 -8 -6 -5 -4 -3 -3 -2 -1 0 0 1 1 2 1 1 1 1 0 -0 -1 -1 -1 -0 -1 -1 1 1 1 4 5 7 9 8 8 8 9 10 12 13 15 16 17 18 21 23 26 27 28 28 27 28 28 29 29 29 29 28 27 28 26 25 25 23 23 23 22 19 19 19 22 23 23 25 25 24 25 25 26 27
-10 -10 -10 -9 -9 -8 -7 -6 -5 -4 -3 -2 -1 -0 1 3 2 3 3 3 4 3 4 3 3 3 2 2 2 2 5 4 4 5 6 7 9 8 7 6 7 7 8 10 12 14 16 17 18 19 22 25 26 27 29 29 28 27 28 29 28 28 28 28 27 25 25 25 24 23 23 22 21 19 19 19 21 21 23 25 25 26 26 26 26
-11 -10 -10 -9 -9 -8 -6 -5 -4 -4 -2 -1 -1 1 2 3 3 4 3 5 5 6 6 6 6 6 6 5 6 6 6 6 8 13 13 9 9 8 8 6 6 7 8 10 11 13 15 17 18 19 22 24 25 25 27 29 30 30 29 28 28 28 28 27 24 23 26 24 23 23 23 24 22 20 19 19 19 21 22 23 23 24 25 25 25
-11 -10 -9 -9 -8 -7 -6 -5 -4 -2 -0 1 1 1 2 3 3 3 4 5 5 6 6 7 7 7 7 7 7 8 8 8 13 15 17 17 14 11 10 10 8 7 9 10 11 11 14 17 19 20 20 22 25 25 26 27 29 30 30 30 30 29 28 27 27 26 26 26 25 24 23 25 23 21 20 19 19 19 20 22 23 24 23 23 22
-10 -10 -9 -8 -7 -7 -6 -5 -3 -2 -1 1 1 2 2 3 3 4 4 4 5 6 6 7 7 8 8 8 8 8 8 13 16 17 18 19 18 13 13 12 12 12 12 13 13 14 15 16 18 19 21 22 24 25 26 27 28 29 30 31 31 31 31 29 27 27 28 26 25 24 25 25 25 23 23 22 20 19 21 23 23 23 23 23 23
-10 -9 -9 -8 -8 -7 -5 -3 -2 -1 -0 0 1 2 2 3 3 4 4 5 6 6 7 7 8 8 9 9 9 10 10 15 18 19 19 20 20 18 14 14 13 13 14 15 15 16 17 17 18 20 21 22 22 25 25 26 28 29 30 31 31 31 31 31 31 29 28 27 27 27 27 27 27 25 25 23 23 22 21 22 23 23 24 23 23
-10 -9 -9 -8 -7 -6 -4 -3 -3 -1 -1 -0 1 1 2 2 3 4 5 6 7 7 7 7 8 9 9 9 10 10 11 15 18 20 20 20 20 19 17 16 15 15 15 16 16 16 17 18 18 19 21 22 23 24 25 26 27 28 29 29 30 30 31 31 31 30 30 29 29 27 28 29 27 29 28 28 26 23 22 22 24 23 24 24 25
-10 -9 -8 -7 -6 -4 -4 -3 -3 -2 -1 -0 0 1 2 3 3 4 5 6 6 7 7 8 9 10 10 10 10 11 11 17 19 20 21 22 21 21 18 18 17 17 17 17 18 18 18 18 19 19 20 22 22 24 25 26 26 26 28 29 30 30 30 30 31 31 30 30 29 29 30 30 30 30 30 29 28 27 26 25 25 25 25 26 25
-10 -9 -8 -8 -6 -5 -4 -3 -2 -2 -2 -1 -0 1 2 3 3 4 5 6 7 8 8 9 10 10 11 11 11 11 12 18 20 21 22 22 23 21 20 20 19 18 18 19 18 19 19 19 19 20 20 21 22 24 25 25 25 26 26 27 28 29 30 31 31 32 31 31 30 30 30 30 31 30 30 29 28 28 26 26 26 24 23 22 21
-10 -9 -7 -7 -5 -4 -4 -3 -3 -2 -1 -1 0 1 2 3 4 5 6 7 8 8 9 10 11 11 11 12 12 12 13 16 19 21 22 23 22 21 22 21 20 20 20 19 19 20 20 20 20 20 20 21 23 24 24 24 25 25 25 25 26 27 27 30 30 31 31 32 32 32 32 32 31 30 31 31 29 28 26 24 23 23 22 21 21
-9 -8 -7 -7 -5 -4 -3 -2 -2 -1 -0 -0 0 1 2 4 5 6 7 7 8 9 10 10 11 12 12 12 13 13 14 17 20 21 22 23 23 22 21 21 22 22 22 22 21 20 21 22 22 21 21 21 23 24 24 24 25 25 24 24 24 24 25 27 28 29 30 31 31 31 31 32 32 31 32 31 30 29 26 23 24 23 22 21 20
-8 -8 -6 -6 -4 -4 -3 -2 -1 -1 -0 0 1 2 3 4 6 7 8 9 9 10 11 11 12 13 14 14 16 16 16 17 20 22 22 23 22 22 21 21 21 22 23 23 23 22 22 22 23 22 21 22 24 24 24 25 25 26 25 24 23 23 24 26 27 27 28 28 29 31 31 31 31 31 31 31 30 29 28 27 25 24 22 22 21
-9 -6 -5 -5 -4 -3 -2 -1 -1 -0 0 1 2 3 4 5 7 8 9 9 9 10 11 12 14 14 15 16 16 17 17 18 19 22 23 23 24 23 22 21 20 21 22 22 22 24 23 22 22 24 24 24 24 25 24 25 25 26 26 24 23 23 25 25 26 26 27 27 27 29 30 31 31 31 31 31 31 30 29 28 27 25 23 22 22
-7 -6 -5 -4 -4 -4 -2 -1 -1 -0 1 1 3 4 5 7 8 9 9 10 11 12 13 14 15 16 17 18 19 20 20 20 20 22 23 24 24 23 21 21 21 20 20 20 21 21 23 24 23 24 25 25 25 26 26 26 26 26 26 24 24 25 26 24 25 27 27 27 27 28 28 28 29 30 29 30 30 29 29 29 29 27 25 24 23
-6 -5 -5 -6 -4 -3 -2 -1 -0 0 1 2 3 4 6 8 9 9 9 11 12 13 14 15 16 17 19 21 22 22 23 23 22 23 24 25 25 24 22 22 22 21 20 20 20 21 21 22 25 26 26 26 26 27 27 27 26 25 25 26 26 26 26 24 24 25 25 25 25 27 27 28 28 26 26 27 29 29 29 28 28 28 27 26 24
-6 -7 -5 -5 -3 -2 -2 -1 -0 1 2 3 4 5 6 8 9 10 11 12 13 13 14 16 17 17 19 20 22 24 25 24 24 25 25 25 25 25 25 24 24 22 21 21 21 21 21 23 24 26 27 27 27 27 28 28 27 27 27 27 27 27 26 23 23 23 23 24 25 25 26 27 27 24 26 27 28 29 28 28 28 28 27 24 23
-6 -6 -5 -5 -4 -2 -2 -1 0 1 2 4 4 5 6 8 9 9 10 11 12 13 14 15 16 17 17 19 20 22 24 23 24 25 25 25 24 24 24 24 25 25 24 21 20 20 21 22 23 24 25 26 27 29 29 29 28 29 29 28 28 28 26 25 24 23 23 24 25 25 26 26 26 25 26 28 28 29 28 28 27 26 22 19 18
-6 -6 -5 -4 -3 -3 -2 -1 0 1 3 3 4 4 6 8 7 9 10 12 12 12 13 14 15 15 16 17 18 19 21 20 21 23 25 25 24 24 23 23 23 23 23 24 24 22 22 22 23 24 24 24 25 25 26 26 28 29 30 29 29 27 26 25 24 24 23 24 24 24 25 26 26 26 27 28 24 21 19 17 17 16 16 15 14
-6 -6 -5 -4 -3 -2 -2 -1 0 2 3 3 4 4 5 6 7 8 10 11 11 12 13 13 14 15 15 17 16 17 19 19 19 20 22 22 22 22 23 23 23 23 22 23 24 26 26 25 23 22 23 23 23 24 24 25 26 28 29 30 29 28 27 25 25 25 24 24 24 24 24 25 26 24 24 23 23 20 18 16 15 15 17 17 15
-7 -6 -6 -5 -3 -2 -2 -2 -1 1 2 2 2 3 4 5 7 9 10 10 11 12 13 13 13 14 15 16 16 16 17 17 18 19 20 20 20 21 20 20 21 22 21 21 22 22 23 25 25 24 23 23 23 23 24 25 25 24 25 27 29 29 28 27 26 25 25 24 24 24 25 24 22 22 22 23 22 19 19 18 17 16 17 17 15
-8 -7 -6 -4 -4 -3 -3 -2 -1 -1 0 2 1 3 4 6 7 8 10 10 11 12 14 13 13 14 14 15 15 15 15 15 17 19 20 20 20 20 20 20 19 19 20 21 21 22 22 23 24 24 24 23 22 22 22 22 23 23 23 25 26 28 30 29 28 26 25 25 24 24 22 21 22 23 23 23 20 19 19 18 17 16 16 16 14
-7 -7 -5 -5 -5 -4 -4 -3 -2 -1 -0 1 2 3 4 6 8 10 12 12 13 14 14 13 15 15 15 14 14 14 14 15 17 21 21 22 21 20 19 19 19 20 21 22 21 21 20 20 21 21 21 22 22 22 22 22 22 23 24 23 24 26 28 28 26 26 26 25 25 23 21 22 22 23 22 21 19 18 19 18 17 16 15 16 15
-8 -8 -6 -6 -5 -5 -4 -4 -2 -2 -1 -0 1 3 6 11 11 10 10 14 15 17 17 15 16 15 14 15 16 15 16 17 20 21 22 22 21 21 21 21 21 20 21 20 19 17 17 17 17 17 18 19 19 20 21 21 21 21 21 23 22 23 25 27 27 26 26 26 24 21 21 22 21 21 21 20 18 18 18 18 17 16 15 16 15
-9 -9 -7 -7 -6 -5 -4 -4 -3 -2 -1 0 1 2 3 4 11 13 13 13 14 15 16 17 18 18 15 14 15 17 19 19 20 20 21 21 20 20 20 20 20 19 19 16 14 13 13 13 14 14 15 16 16 17 17 19 20 21 22 21 21 21 22 25 27 26 25 25 22 21 20 21 21 20 20 18 17 17 17 16 16 15 15 15 13
-10 -9 -8 -6 -6 -5 -5 -4 -3 -2 -1 -0 1 2 2 2 5 9 12 13 14 14 15 16 17 17 17 16 16 14 17 18 19 20 20 20 19 19 19 19 19 18 17 15 11 11 11 11 11 11 12 12 12 13 13 14 14 15 16 18 19 19 21 23 23 26 25 25 22 20 20 20 20 20 20 16 15 15 15 15 15 15 16 14 12
-8 -7 -6 -6 -6 -5 -5 -4 -3 -2 -1 -1 0 1 1 2 3 3 5 10 11 11 12 14 15 16 16 17 18 17 17 17 19 19 19 19 18 17 17 18 18 17 13 10 9 9 9 9 9 9 10 10 10 10 11 11 11 11 12 12 13 13 15 16 19 23 24 24 22 21 21 20 18 18 16 16 15 15 15 14 15 15 15 12 10
-7 -7 -6 -6 -6 -6 -5 -4 -3 -3 -2 -1 -0 0 1 3 3 3 2 2 3 5 8 11 13 14 14 15 16 17 17 17 17 18 18 18 17 16 14 12 14 15 12 7 7 7 7 7 7 8 8 8 9 9 9 10 10 10 11 11 11 12 13 15 15 16 16 18 19 19 19 19 18 17 15 15 14 15 14 13 14 13 11 10 9
-7 -6 -5 -5 -5 -5 -4 -4 -3 -3 -2 -1 -1 0 1 3 3 2 1 1 0 0 1 1 6 10 7 9 13 15 16 16 16 16 17 17 16 14 10 6 5 5 6 6 6 5 5 5 5 6 6 6 7 7 8 8 9 9 9 10 10 11 12 12 12 12 12 12 12 12 13 14 13 13 13 13 13 13 13 13 12 12 11 9 7
-8 -7 -6 -5 -5 -5 -4 -4 -3 -3 -2 -1 -0 0 2 2 1 1 1 0 -0 -1 -1 -1 0 5 7 8 11 12 14 14 14 14 15 15 14 11 3 3 3 3 4 5 5 4 4 4 3 4 5 5 6 6 7 7 8 8 9 9 9 10 10 10 11 11 11 11 10 11 11 11 11 11 11 11 12 11 11 10 10 10 10 8 6
-8 -8 -8 -6 -5 -5 -4 -3 -2 -2 -0 -0 -1 -1 1 0 0 -0 -0 -1 -1 -2 -3 -3 -2 -3 1 1 5 9 11 11 12 11 12 11 10 2 0 0 1 2 2 3 4 4 3 3 2 2 3 3 4 5 6 6 7 8 10 9 9 9 9 9 10 10 10 10 10 10 10 10 10 10 10 10 9 9 9 9 8 7 7 6 3
-8 -8 -8 -6 -5 -4 -4 -4 -3 -1 -2 -2 -2 -1 -1 -1 -2 -2 -2 -3 -2 -3 -4 -5 -1 -5 -5 -3 4 2 0 5 6 4 5 5 -2 -2 -2 -1 -1 -1 -1 0 2 3 3 3 2 2 2 3 3 4 5 6 6 7 8 9 9 10 11 8 9 9 9 9 9 9 9 9 9 9 9 9 8 7 6 6 6 4 3 3 3
-9 -8 -7 -6 -4 -5 -5 -4 -4 -4 -3 -3 -3 -2 -2 -2 -3 -3 -4 -5 -5 -5 -5 -6 -6 -6 -5 -3 -2 0 -3 -6 -6 -5 -5 -5 -5 -4 -4 -4 -3 -3 -2 -2 -1 1 2 3 3 2 2 2 2 3 4 4 5 5 6 6 7 7 7 8 8 8 8 8 8 8 8 9 9 9 9 8 7 6 6 6 5 4 4 3 4
-10 -10 -8 -6 -6 -5 -5 -5 -5 -5 -4 -4 -4 -4 -4 -4 -4 -4 -5 -6 -6 -6 -7 -7 -7 -7 -5 -3 -2 -3 -7 -7 -7 -7 -7 -7 -6 -6 -5 -5 -5 -5 -5 -5 -4 -3 -0 1 1 2 2 1 1 1 1 2 3 3 3 4 4 4 5 6 6 6 6 7 7 7 7 8 8 8 8 7 6 6 6 5 4 4 4 4 3
-11 -10 -8 -7 -6 -7 -6 -6 -6 -6 -5 -5 -5 -5 -5 -4 -4 -4 -5 -6 -7 -7 -7 -8 -8 -7 -4 -1 3 2 -8 -8 -8 -8 -8 -8 -8 -7 -7 -7 -7 -6 -6 -6 -6 -5 -4 -2 -1 -1 -1 -2 -2 -2 -1 0 2 2 2 2 2 2 3 3 5 5 5 5 5 5 5 5 6 6 5 4 7 5 3 3 3 2 0 -1 -1
-12 -11 -10 -9 -7 -8 -8 -7 -7 -6 -6 -5 -6 -6 -5 -6 -6 -6 -6 -6 -7 -7 -8 -8 -8 -8 -4 1 1 5 -7 -9 -8 -8 -9 -9 -9 -9 -8 -8 -8 -8 -8 -8 -8 -8 -6 -5 -3 -3 -4 -4 -5 -5 -4 -3 -2 1 2 2 2 2 2 2 2 4 3 3 3 4 4 3 3 4 4 6 2 2 2 1 0 -1 -2 -3 -4
-12 -11 -10 -9 -9 -9 -8 -8 -8 -8 -7 -7 -7 -5 -5 -6 -7 -7 -8 -7 -8 -8 -9 -9 -9 -9 -8 -5 -6 -5 -9 -10 -8 -9 -10 -10 -10 -9 -9 -9 -9 -8 -8 -8 -9 -9 -8 -7 -6 -5 -5 -6 -7 -7 -7 -6 -5 -3 -0 0 0 0 1 1 1 2 2 2 2 3 4 4 3 3 1 0 1 0 -0 -1 -2 -3 -4 -4 -5
-13 -12 -11 -10 -10 -9 -9 -9 -9 -8 -8 -7 -7 -7 -7 -7 -8 -8 -8 -9 -9 -9 -10 -10 -10 -10 -10 -9 -9 -9 -10 -10 -10 -11 -10 -10 -11 -10 -10 -10 -9 -9 -9 -9 -9 -9 -9 -9 -9 -8 -7 -8 -8 -8 -9 -9 -9 -6 -4 -2 -2 -2 -1 -1 -0 0 1 1 1 1 1 -0 -1 -1 -2 -2 -1 -2 -3 -3 -4 -4 -5 -5 -6
-14 -13 -12 -12 -11 -11 -11 -10 -10 -10 -8 -9 -9 -9 -8 -9 -9 -9 -9 -10 -9 -10 -10 -10 -10 -11 -11 -11 -11 -11 -11 -11 -10 -11 -11 -11 -11 -11 -11 -10 -9 -9 -9 -9 -9 -9 -10 -10 -10 -9 -9 -10 -10 -10 -10 -10 -10 -10 -9 -7 -3 -3 -3 -3 -3 -3 -1 -0 -1 -2 -2 -3 -2 -3 -3 -3 -3 -4 -5 -5 -5 -7 -6 -6 -6
-14 -14 -13 -13 -12 -12 -12 -12 -10 -11 -11 -11 -10 -10 -10 -10 -10 -9 -10 -10 -10 -10 -11 -11 -11 -11 -11 -12 -12 -11 -12 -11 -11 -11 -12 -12 -12 -12 -11 -11 -10 -9 -9 -10 -10 -9 -10 -10 -10 -9 -10 -11 -10 -11 -11 -10 -10 -10 -10 -9 -8 -7 -7 -6 -5 -4 -3 -3 -3 -4 -5 -5 -5 -6 -7 -5 -5 -5 -6 -6 -7 -6 -6 -6 -6
-15 -15 -14 -14 -14 -13 -13 -12 -12 -12 -12 -12 -11 -11 -11 -11 -11 -10 -9 -10 -10 -10 -11 -12 -12 -12 -12 -12 -12 -13 -12 -12 -13 -12 -12 -12 -12 -12 -12 -11 -11 -10 -10 -10 -9 -10 -10 -10 -10 -9 -9 -10 -10 -10 -11 -11 -11 -11 -10 -10 -10 -9 -9 -9 -8 -6 -6 -6 -6 -6 -6 -7 -8 -9 -9 -9 -9 -8 -8 -8 -8 -7 -7 -8 -9
-16 -15 -15 -15 -15 -15 -15 -15 -14 -13 -14 -13 -13 -12 -11 -11 -11 -11 -11 -11 -12 -12 -12 -12 -12 -12 -12 -13 -13 -13 -13 -13 -13 -13 -13 -13 -13 -13 -12 -12 -12 -11 -10 -10 -10 -10 -10 -10 -10 -9 -9 -9 -9 -10 -11 -11 -11 -11 -11 -11 -11 -12 -11 -10 -9 -9 -8 -8 -8 -8 -8 -8 -9 -10 -10 -9 -9 -9 -10 -11 -11 -11 -11 -11 -11
-16 -16 -17 -16 -16 -16 -16 -16 -15 -15 -15 -15 -14 -15 -13 -13 -12 -12 -12 -12 -12 -12 -12 -13 -13 -13 -13 -13 -13 -13 -13 -13 -14 -14 -14 -14 -14 -14 -13 -13 -12 -12 -11 -11 -11 -11 -11 -11 -11 -10 -10 -8 -8 -8 -9 -10 -11 -11 -11 -12 -12 -12 -12 -12 -12 -12 -11 -10 -10 -10 -10 -9 -10 -11 -11 -11 -11 -10 -10 -11 -11 -12 -13 -13 -13
-17 -17 -17 -17 -17 -17 -17 -17 -17 -17 -16 -16 -16 -16 -15 -14 -14 -14 -13 -13 -13 -13 -13 -13 -13 -13 -13 -14 -13 -14 -14 -14 -14 -14 -14 -14 -14 -14 -14 -14 -14 -13 -13 -12 -12 -12 -12 -11 -12 -12 -11 -10 -8 -7 -7 -8 -9 -11 -11 -12 -12 -12 -13 -13 -14 -14 -13 -13 -12 -12 -11 -12 -12 -13 -13 -13 -13 -12 -12 -12 -13 -13 -12 -12 -13
-18 -18 -18 -18 -18 -18 -18 -18 -18 -18 -17 -17 -17 -17 -17 -17 -16 -16 -15 -15 -14 -14 -14 -14 -14 -14 -13 -14 -13 -14 -14 -14 -14 -14 -14 -14 -14 -14 -14 -14 -14 -14 -14 -13 -13 -13 -12 -12 -12 -13 -12 -12 -11 -9 -7 -6 -7 -8 -10 -10 -11 -12 -13 -14 -15 -15 -14 -14 -13 -12 -12 -12 -13 -13 -14 -14 -13 -13 -13 -13 -14 -12 -11 -11 -13